Location: Key Biscayne
(25.6930°N, 80.1630°W)
Time: 18:47:08
(UTC-05:00)

Tiangong 1 - Visible Passes

Search period start: 12 December 2017 00:00
Search period end: 22 December 2017 00:00
Orbit: 276 x 303 km, 42.8° (Epoch: 12 December)

Date Brightness Start Highest point End Pass type
(mag) Time Alt. Az. Time Alt. Az. Time Alt. Az.
17 Dec 3.7 05:29:09 10° S 05:30:31 14° SE 05:31:54 10° ESE visible
18 Dec 1.8 05:34:13 37° SSE 05:34:22 37° SE 05:36:43 10° ENE visible
19 Dec 2.0 05:39:15 29° NE 05:39:15 29° NE 05:40:40 10° NE visible
20 Dec 3.2 05:43:47 12° NNE 05:43:47 12° NNE 05:44:04 10° NNE visible
